Weather History for KBRO - October, 2012

Change the Weather History Date:

Friday, October 12, 2012

  Actual Average Record
Temperature  
Mean Temperature 84 °F 77 °F  
Max Temperature 91 °F 86 °F 94 °F (1897)
Min Temperature 76 °F 68 °F 51 °F (1994)
Degree Days  
Heating Degree Days 0 0  
Month to date heating degree days 0 0  
Since 1 July heating degree days 0 0  
Cooling Degree Days 19 12  
Month to date cooling degree days 164 157  
Year to date cooling degree days 4176 3568  
Growing Degree Days 33 (Base 50)    
Moisture  
Dew Point 75 °F    
Average Humidity 82    
Maximum Humidity 100    
Minimum Humidity 64    
Precipitation  
Precipitation 0.02 in 0.13 in 3.49 in (1995)
Month to date precipitation 0.10 1.70  
Year to date precipitation 20.22 22.43  
Sea Level Pressure  
Sea Level Pressure 30.06 in    
Wind  
Wind Speed 9 mph (ESE)    
Max Wind Speed 20 mph    
Max Gust Speed 26 mph    
Visibility 10 miles    
Events Rain    
T = Trace of Precipitation, MM = Missing Value Source: NWS Daily Summary

Daily Weather History Graph

Daily Weather History Graph

Search for Another Location

Airport or City:

Trip Planner

Search our weather history database for the weather conditions in past years. The results will help you decide how hot, cold, wet, or windy it might be!

Date:

Astronomy

Oct. 12, 2012 Rise Set
Actual Time 7:27 AM CDT 7:04 PM CDT
Civil Twilight 7:04 AM CDT 7:27 PM CDT
Nautical Twilight 6:37 AM CDT 7:54 PM CDT
Astronomical Twilight 6:10 AM CDT 8:20 PM CDT
Moon 4:27 AM CDT (10/12) 5:02 PM CDT (10/12)
Length of Visible Light 12h 23m
Length of Day
11h 37m
Waning Crescent, 10% of the Moon is Illuminated
Oct 12
Waning Crescent
Oct 15
New
Oct 21
First Quarter
Oct 29
Full
Nov 6
Last Quarter

Hourly Weather History & Observations

Time (CDT) Temp. Heat Index Dew Point Humidity Pressure Visibility Wind Dir Wind Speed Gust Speed Precip Events Conditions
12:53 AM 78.1 °F - 75.0 °F 90% 30.07 in 10.0 mi ESE 6.9 mph - N/A   Clear
1:53 AM 77.0 °F - 75.0 °F 94% 30.07 in 10.0 mi ESE 3.5 mph - N/A   Clear
2:53 AM 77.0 °F - 75.0 °F 94% 30.06 in 10.0 mi East 3.5 mph - N/A   Clear
3:53 AM 75.9 °F - 73.9 °F 94% 30.05 in 10.0 mi East 3.5 mph - N/A   Clear
4:53 AM 77.0 °F - 75.0 °F 94% 30.04 in 10.0 mi ENE 3.5 mph - N/A   Mostly Cloudy
5:53 AM 75.9 °F - 75.0 °F 97% 30.05 in 10.0 mi East 5.8 mph - N/A   Scattered Clouds
6:53 AM 77.0 °F - 75.0 °F 94% 30.06 in 10.0 mi East 4.6 mph - N/A   Clear
7:53 AM 79.0 °F - 75.9 °F 90% 30.08 in 10.0 mi ESE 6.9 mph - N/A   Mostly Cloudy
8:53 AM 81.0 °F 88.6 °F 78.1 °F 91% 30.10 in 10.0 mi SE 5.8 mph - N/A   Scattered Clouds
9:53 AM 82.9 °F 90.8 °F 75.9 °F 79% 30.12 in 10.0 mi SE 10.4 mph - N/A   Clear
10:53 AM 88.0 °F 97.5 °F 75.0 °F 65% 30.11 in 10.0 mi SE 10.4 mph 18.4 mph 0.00 in   Scattered Clouds
11:53 AM 90.0 °F 100.2 °F 75.0 °F 61% 30.10 in 10.0 mi SE 15.0 mph 20.7 mph N/A   Partly Cloudy
12:53 PM 90.0 °F 100.2 °F 75.0 °F 61% 30.09 in 10.0 mi ESE 13.8 mph 21.9 mph N/A   Mostly Cloudy
1:53 PM 90.0 °F 100.2 °F 75.0 °F 61% 30.05 in 10.0 mi ESE 17.3 mph 23.0 mph N/A   Mostly Cloudy
2:53 PM 90.0 °F 100.2 °F 75.0 °F 61% 30.03 in 10.0 mi ESE 15.0 mph 24.2 mph N/A   Mostly Cloudy
3:53 PM 88.0 °F 97.5 °F 75.0 °F 65% 30.02 in 10.0 mi SE 15.0 mph 23.0 mph N/A   Mostly Cloudy
4:53 PM 87.1 °F 96.3 °F 75.0 °F 67% 30.02 in 10.0 mi SE 15.0 mph 23.0 mph N/A   Scattered Clouds
5:53 PM 84.9 °F 92.1 °F 73.9 °F 69% 30.02 in 10.0 mi ESE 16.1 mph 20.7 mph N/A   Clear
6:53 PM 82.9 °F 90.2 °F 75.0 °F 77% 30.04 in 10.0 mi ESE 10.4 mph - N/A   Clear
7:53 PM 82.0 °F 88.6 °F 75.0 °F 79% 30.04 in 10.0 mi ESE 10.4 mph - N/A   Scattered Clouds
8:53 PM 82.0 °F 89.4 °F 75.9 °F 82% 30.06 in 10.0 mi ESE 6.9 mph - N/A   Partly Cloudy
9:53 PM 81.0 °F 87.3 °F 75.9 °F 85% 30.07 in 10.0 mi ESE 6.9 mph - N/A   Clear
10:53 PM 78.1 °F - 75.9 °F 93% 30.09 in 6.0 mi SSE 8.1 mph - 0.01 in Rain Light Rain
11:53 PM 78.1 °F - 75.9 °F 93% 30.08 in 10.0 mi SE 11.5 mph - 0.01 in   Overcast